Atlanta, GA

8:38 AM EST on December 08, 2019 (GMT -0500)
The Hartsfield Atlanta International

Weather History for KATL - October, 2019

Change the Weather History Date:

Saturday, October 12, 2019

  Actual Average Record
Temperature  
Mean Temperature 72 °F 64 °F  
Max Temperature 82 °F 74 °F 87 °F (2017)
Min Temperature 63 °F 55 °F 36 °F (1906)
Degree Days  
Heating Degree Days 0 3  
Month to date heating degree days 0 24  
Since 1 July heating degree days 0 35  
Cooling Degree Days 8 2  
Month to date cooling degree days 144 40  
Year to date cooling degree days 2621 1845  
Growing Degree Days 22 (Base 50)    
Moisture  
Dew Point 54 °F    
Average Humidity 56    
Maximum Humidity 67    
Minimum Humidity 39    
Precipitation  
Precipitation T in 0.10 in 2.50 in (2009)
Month to date precipitation T 1.49  
Year to date precipitation 32.33 39.79  
Sea Level Pressure  
Sea Level Pressure 30.03 in    
Wind  
Wind Speed 4 mph ()    
Max Wind Speed 14 mph    
Max Gust Speed 20 mph    
Visibility 10.0 miles    
Events      
T = Trace of Precipitation, MM = Missing Value Source: Averaged Metar Reports

Daily Weather History Graph

Daily Weather History Graph

Search for Another Location

Airport or City:

Astronomy

Oct. 12, 2019 Rise Set
Actual Time 7:40 AM EDT 7:07 PM EDT
Civil Twilight 7:15 AM EDT 7:32 PM EDT
Nautical Twilight 6:46 AM EDT 8:01 PM EDT
Astronomical Twilight 6:17 AM EDT 8:30 PM EDT
Moon 6:57 PM EDT (10/12) 6:23 AM EDT (10/12)
Length of Visible Light 12h 17m
Length of Day
11h 27m
Waxing Gibbous, 99% of the Moon is Illuminated
Oct 12
Waxing Gibbous
Oct 13
Full
Oct 21
Last Quarter
Oct 27
New
Nov 4
First Quarter

Hourly Weather History & Observations

Time (EDT) Temp. Heat Index Dew Point Humidity Pressure Visibility Wind Dir Wind Speed Gust Speed Precip Events Conditions
12:52 AM 68.0 °F - 52.0 °F 56% 30.04 in 10.0 mi SSE 4.6 mph - N/A   Mostly Cloudy
1:52 AM 68.0 °F - 52.0 °F 56% 30.03 in 10.0 mi South 3.5 mph - N/A   Scattered Clouds
2:52 AM 66.9 °F - 52.0 °F 59% 30.02 in 10.0 mi Calm Calm - N/A   Mostly Cloudy
3:52 AM 66.9 °F - 52.0 °F 59% 30.01 in 10.0 mi Calm Calm - N/A   Mostly Cloudy
4:52 AM 66.9 °F - 51.1 °F 57% 30.01 in 10.0 mi Calm Calm - N/A   Mostly Cloudy
5:52 AM 64.9 °F - 53.1 °F 65% 30.01 in 10.0 mi Calm Calm - N/A   Partly Cloudy
6:52 AM 64.0 °F - 52.0 °F 65% 30.04 in 10.0 mi Calm Calm - N/A   Partly Cloudy
7:52 AM 63.0 °F - 51.1 °F 65% 30.05 in 10.0 mi Calm Calm - N/A   Partly Cloudy
8:52 AM 66.9 °F - 53.1 °F 61% 30.05 in 10.0 mi South 3.5 mph - N/A   Partly Cloudy
9:52 AM 71.1 °F - 52.0 °F 51% 30.05 in 10.0 mi SSW 4.6 mph - N/A   Mostly Cloudy
10:52 AM 75.9 °F - 53.1 °F 45% 30.05 in 10.0 mi West 6.9 mph - N/A   Partly Cloudy
11:52 AM 78.1 °F - 53.1 °F 42% 30.05 in 10.0 mi WNW 8.1 mph - N/A   Scattered Clouds
12:52 PM 80.1 °F 79.9 °F 53.1 °F 39% 30.04 in 10.0 mi West 6.9 mph - N/A   Mostly Cloudy
1:52 PM 80.1 °F 80.1 °F 55.0 °F 42% 30.03 in 10.0 mi WNW 10.4 mph - N/A   Mostly Cloudy
2:52 PM 79.0 °F - 55.9 °F 45% 30.01 in 10.0 mi West 11.5 mph - N/A   Mostly Cloudy
3:52 PM 78.1 °F - 59.0 °F 52% 30.01 in 10.0 mi Variable 6.9 mph - N/A   Mostly Cloudy
4:52 PM 77.0 °F - 59.0 °F 54% 30.01 in 10.0 mi NW 11.5 mph - N/A   Mostly Cloudy
5:52 PM 75.0 °F - 59.0 °F 57% 30.02 in 10.0 mi NW 11.5 mph - N/A   Mostly Cloudy
6:52 PM 73.0 °F - 59.0 °F 61% 30.02 in 10.0 mi WNW 8.1 mph - N/A   Mostly Cloudy
7:52 PM 72.0 °F - 57.9 °F 61% 30.02 in 10.0 mi NW 8.1 mph - 0.00 in   Mostly Cloudy
8:52 PM 71.1 °F - 57.0 °F 61% 30.03 in 10.0 mi NW 9.2 mph - N/A   Mostly Cloudy
9:52 PM 69.1 °F - 55.9 °F 63% 30.03 in 10.0 mi NNW 8.1 mph - N/A   Mostly Cloudy
10:52 PM 68.0 °F - 55.0 °F 63% 30.02 in 10.0 mi NW 8.1 mph - N/A   Overcast
11:52 PM 66.9 °F - 54.0 °F 63% 30.02 in 10.0 mi NW 6.9 mph - N/A   Overcast